Tuesday, June 19, 2018, 12:46 AM EDT
Back to Local

KMHT, Manchester Airport

Location: Manchester, NH, United States Lat: 42.933
Local Time: 12:46 AM EDT ( 4:46 GMT) Lon: -71.433
Time Zone: US/Eastern Elev: 232 ft

Show me the last for .
Show Decoded

2018-06-18 23:53 METAR KMHT 190353Z 19008KT 10SM SCT085 BKN120 24/22 A2961 RMK AO2 RAB26E42
                 SLP036 P0000 T02390222 $ =
2018-06-18 22:53 METAR KMHT 190253Z 20011KT 10SM BKN080 OVC120 24/22 A2965 RMK AO2 SLP047 60000
                 T02390217 58016 $ =
2018-06-18 21:53 METAR KMHT 190153Z 20008KT 10SM BKN085 OVC110 24/22 A2968 RMK AO2 SLP058
                 T02390222 $ =
2018-06-18 20:53 METAR KMHT 190053Z 18009KT 10SM BKN100 OVC130 24/22 A2968 RMK AO2 LTG DSNT S
                 RAB10E36 SLP059 P0000 T02390217 $ =
2018-06-18 19:53 METAR KMHT 182353Z 18005KT 10SM SCT075 BKN110 OVC150 24/22 A2969 RMK AO2 SLP065
                 LTG DSNT SE SW 60016 T02390217 10344 20233 50004 $ =
2018-06-18 18:53 METAR KMHT 182253Z 21008KT 10SM FEW035 OVC130 23/21 A2972 RMK AO2 PK WND
                 26042/2205 LTG DSNT ALQDS RAB07E53 TSB2155 SLP073 FRQ LTG DSNT NE SE-SW MOV E
                 P0016 T02330211 $ =
2018-06-18 18:39 METAR KMHT 182239Z 21005KT 10SM -RA SCT035 OVC110 23/21 A2972 RMK AO2 PK WND
                 26042/2205 LTG DSNT ALQDS RAB07 TSB2155 FRQ LTG DSNT SE-SW MOV E P0016 T02330211
                 $ =
2018-06-18 18:15 METAR KMHT 182215Z 24008G36KT 4SM R35/4500VP6000FT +TSRA FEW020CB BKN040 BKN060
                 OVC200 24/21 A2972 RMK AO2 PK WND 26042/2205 LTG DSNT ALQDS RAB07 TSB2155 FRQ
                 LTGICCG OHD TS OHD MOV E P0014 T02390206 $ =
2018-06-18 18:08 METAR KMHT 182208Z 25018G42KT 1 1/4SM R35/4500VP6000FT TSRA FEW020CB BKN040
                 BKN060 OVC130 27/21 A2975 RMK AO2 PK WND 26042/2205 LTG DSNT ALQDS RAB07 TSB2155
                 PRESRR FRQ LTGICCG OHD TS OHD MOV E P0008 T02720211 =
2018-06-18 17:55 METAR KMHT 182155Z 21013G21KT 10SM TS FEW060CB SCT085 OVC200 32/21 A2967 RMK AO2
                 LTG DSNT ALQDS TSB55 OCNL LTGIC VC SW-NW TS VC SW-NW MOV E T03220211 =
2018-06-18 17:53 METAR KMHT 182153Z 22014G21KT 10SM FEW060 FEW085 OVC200 33/21 A2967 RMK AO2 LTG
                 DSNT ALQDS SLP053 T03280211 =
2018-06-18 16:53 METAR KMHT 182053Z 21009G16KT 10SM FEW050 SCT065 SCT200 OVC250 33/21 A2968 RMK
                 AO2 LTG DSNT N SLP060 60000 T03330211 58030 =
2018-06-18 15:53 METAR KMHT 181953Z 20013G20KT 10SM FEW055 FEW090 SCT220 BKN250 34/21 A2971 RMK
                 AO2 SLP069 T03390206 =
2018-06-18 14:53 METAR KMHT 181853Z 22012G17KT 10SM FEW050 SCT200 BKN250 34/20 A2975 RMK AO2
                 SLP082 T03390200 =
2018-06-18 13:53 METAR KMHT 181753Z 21009G17KT 10SM SCT150 OVC250 33/19 A2977 RMK AO2 SLP090
                 T03280194 10328 20228 58027 $ =
2018-06-18 12:53 METAR KMHT 181653Z 22011KT 10SM FEW150 BKN220 33/19 A2981 RMK AO2 SLP101
                 T03280194 $ =
2018-06-18 11:53 METAR KMHT 181553Z 20011KT 10SM BKN220 27/19 A2984 RMK AO2 SLP112 T02670189 =
2018-06-18 10:53 METAR KMHT 181453Z 20012KT 10SM SCT180 BKN250 29/18 A2985 RMK AO2 SLP118
                 T02890178 56020 =
2018-06-18 09:53 METAR KMHT 181353Z 20009KT 10SM BKN180 BKN250 27/17 A2987 RMK AO2 SLP125
                 T02720172 =
2018-06-18 08:53 METAR KMHT 181253Z 20008KT 10SM BKN180 BKN250 26/16 A2989 RMK AO2 SLP131
                 T02560161 =
2018-06-18 07:53 METAR KMHT 181153Z 21007KT 10SM BKN180 BKN250 23/14 A2991 RMK AO2 SLP139
                 T02280144 10228 20178 56009 =
2018-06-18 06:53 METAR KMHT 181053Z 19007KT 10SM SCT180 BKN240 22/13 A2992 RMK AO2 SLP141
                 T02170133 $ =
2018-06-18 05:53 METAR KMHT 180953Z 19007KT 10SM SCT180 BKN240 21/12 A2993 RMK AO2 SLP144
                 T02060122 $ =
2018-06-18 04:53 METAR KMHT 180853Z 19004KT 10SM BKN180 21/12 A2994 RMK AO2 SLP147 T02060122
                 56023 $ =
2018-06-18 03:53 METAR KMHT 180753Z 20004KT 10SM BKN250 21/13 A2997 RMK AO2 SLP157 T02060128 $ =
2018-06-18 02:53 METAR KMHT 180653Z 20004KT 10SM BKN250 18/13 A2997 RMK AO2 SLP159 T01830133 $ =
2018-06-18 01:53 METAR KMHT 180553Z 00000KT 10SM BKN250 19/13 A3001 RMK AO2 SLP171 T01890128
                 10256 20189 53000 $ =
2018-06-18 00:53 METAR KMHT 180453Z 00000KT 10SM BKN250 20/13 A3001 RMK AO2 SLP172 T02000128
                 403220139 $ =

Support USWX by starting your Amazon purchase here.